www.pogodaiklimat.ru

Погода и климат >> Архив погоды >> Мексика >> Tuxpan


ПОГОДА в Tuxpan

  • Прогноз погоды в Tuxpan
  • Монитор погоды в Tuxpan
  • Климат города

АРХИВ ПОГОДЫ в Tuxpan

Время (UTC), дата Ветер
(напр.,м/с)
 
Видим.   Явления Облачность Т
(С)
Тd
(С)
f
(%)
Тe
(С)
Тes
(С)
Комфортность P
(гПа)
Po
(гПа)
Тmin
(С)
Tmax
(С)
R
(мм)
R24
(мм)
S
(см)
00 15.02 ЮВ 1 8000 м {морось} 4/1 200 м
[Cu hum Ac trans]
+24.8 +23.1 90 +33 +33 очень
душно
1022.9 1021.8 0.2
03 15.02 ЮВ 1 1000 м 4/3 120 м
[Cu med, cong Ac trans]
+21.6 +20.7 95 +27 +27 душно 1024.1 1022.9
06 15.02 штиль 0 1000 м 8/4 90 м
[Cu med, cong As trans]
+20.4 +19.8 96 +24 +24 комфорт 1024.1 1022.9 +17.6 +26.8
09 15.02 штиль 0 1000 м 9/5 60 м
[Sc As op]
+20.0 +19.7 98 +23 +23 комфорт 1023.0 1021.8
12 15.02 штиль 0 1000 м 10/6 60 м
[Sc As op]
+20.2 +19.9 98 +24 +24 комфорт 1022.7 1021.5 +19.2 +26.8
15 15.02 СВ 1 8000 м {морось} 10/5 150 м
[Sc diur, vesp Ac trans]
+21.2 +20.0 93 +26 +27 душно 1024.0 1022.8 0.0
18 15.02 ЮВ 1 8000 м {морось} 5/5 300 м
[Cu med, cong]
+25.6 +22.4 83 +34 +43 очень
душно
1023.4 1022.3 0.0
21 15.02 ЮВ 1 8000 м 4/4 420 м
[Cu med, cong]
+26.8 +23.6 83 +37 +43 очень
душно
1019.6 1018.5
00 16.02 ЮЗ 1 8000 м ясно +25.4 +23.7 90 +35 +35 очень
душно
1018.8 1017.6 +19.2 +28.2
03 16.02 ЮВ 1 1000 м ясно +22.8 +21.9 95 +31 +31 очень
душно
1017.8 1016.6
06 16.02 ЮВ 1 1000 м ясно +21.4 +20.8 96 +27 +27 душно 1012.5 1011.3 +19.2 +28.2
09 16.02 штиль 0 1000 м ясно +20.6 +20.0 96 +25 +25 комфорт 1011.4 1010.3
12 16.02 ЮВ 1 1000 м 8/5 90 м
[Cu med, cong Ac As]
+20.0 +19.4 96 +24 +24 комфорт 1015.9 1014.7 +19.8 +28.2
15 16.02 ЮВ 1 8000 м мгла {туман} 10/6 90 м
[Sc As op]
+21.0 +20.4 96 +27 +28 душно 1019.9 1018.7
18 16.02 ЮВ 1 8000 м {туман} 9/5 300 м
[Frnb As trans]
+25.2 +22.9 87 +33 +38 очень
душно
1019.7 1018.5 +19.0 +26.8
21 16.02 ЮВ 2 8000 м 5/3 480 м
[Cu med, cong As trans]
+27.6 +23.9 80 +38 +44 очень
душно
1017.1 1015.9
00 17.02 ЮВ 1 8000 м 5/3 200 м
[Sc As trans]
+25.8 +23.5 87 +35 +35 очень
душно
1016.5 1015.4 +19.0 +29.4
03 17.02 ЮВ 1 1000 м 8/4 180 м
[Cu med, cong As op]
+23.8 +22.3 91 +31 +31 очень
душно
1018.2 1017.1
06 17.02 штиль 0 1000 м 6/3 60 м
[Cu med, cong As op]
+22.8 +22.2 96 +31 +31 очень
душно
1019.1 1017.9 +19.0 +29.4
09 17.02 штиль 0 1000 м 8/4 30 м
[Sc As op]
+22.2 +21.9 98 +29 +29 очень
душно
1018.8 1017.6
12 17.02 штиль 0 1000 м 9/4 30 м
[Sc As op]
+22.2 +21.9 98 +29 +29 очень
душно
1018.8 1017.6 +20.6 +29.4
15 17.02 ЮЗ 1 8000 м 6/4 60 м
[Cu med, cong As trans]
+22.4 +22.1 98 +30 +33 очень
душно
1020.1 1019.0
18 17.02 ЮВ 1 8000 м 6/6 270 м
[Cu med, cong]
+25.0 +23.0 89 +33 +41 очень
душно
1020.7 1019.5 +20.6 +26.4
21 17.02 ЮВ 1 8000 м 5/3 400 м
[Cu hum Ci]
+27.8 +24.7 83 +39 +47 очень
душно
1017.5 1016.4
00 18.02 ЮВ 1 8000 м 5/3 200 м
[Sc diur, vesp Ci]
+26.2 +24.5 90 +37 +37 очень
душно
1016.9 1015.8 +20.6 +29.6
03 18.02 ЮВ 1 1000 м 4/4 60 м
[Cu med, cong]
+23.8 +23.2 96 +32 +32 очень
душно
1018.5 1017.3
06 18.02 штиль 0 1000 м 8/4 30 м
[Cu med, cong As op]
+23.0 +22.7 98 +32 +32 очень
душно
1019.4 1018.2 +20.6 +29.6
09 18.02 штиль 0 1000 м 9/4 30 м
[Sc As op]
+22.0 +21.7 98 +29 +29 очень
душно
1018.7 1017.5
12 18.02 ЮВ 1 1000 м 9/4 30 м
[Sc As op]
+22.4 +22.1 98 +30 +30 очень
душно
1019.0 1017.9 +20.6 +29.6
15 18.02 ЮВ 1 8000 м 8/6 90 м
[Cu med, cong As trans]
+22.8 +22.2 96 +31 +33 очень
душно
1020.1 1018.9
18 18.02 ЮВ 1 8000 м 6/6 330 м
[Cu med, cong]
+26.2 +23.6 86 +36 +43 очень
душно
1019.9 1016.7 +20.6 +27.4
21 18.02 ЮВ 1 8000 м 4/4 450 м
[Cu med, cong]
+28.0 +24.6 82 +40 +47 очень
душно
1016.8 1015.6
00 19.02 ЮВ 1 8000 м 4/4 100 м
[Cu med, cong]
+25.8 +24.7 94 +37 +37 очень
душно
1016.1 1014.9 +20.6 +29.6
03 19.02 ЮВ 1 1000 м 5/5 60 м
[Cu med, cong]
+23.8 +23.2 96 +32 +32 очень
душно
1016.8 1015.6
06 19.02 штиль 0 1000 м 5/5 30 м
[Cu med, cong]
+23.4 +23.1 98 +33 +33 очень
душно
1017.3 1016.1 +20.6 +29.6
09 19.02 штиль 0 1000 м 4/4 30 м
[Cu med, cong]
+23.2 +22.9 98 +32 +32 очень
душно
1016.3 1015.1
12 19.02 штиль 0 1000 м 5/5 30 м
[Sc]
+22.6 +22.3 98 +30 +30 очень
душно
1015.3 1014.2 +21.2 +29.6
15 19.02 ЮЗ 1 8000 м дымка {туман} 3/3 90 м
[Sc]
+22.0 +21.4 96 +29 +33 очень
душно
1016.3 1015.1
18 19.02 ЮВ 1 8000 м {туман} 5/3 330 м
[Cu med, cong As trans]
+26.4 +23.8 86 +36 +47 очень
душно
1015.8 1014.7 +21.0 +28.0
21 19.02 ЮВ 1 8000 м 5/1 480 м
[Cu med, cong As trans]
+28.2 +24.5 80 +40 +47 очень
душно
1012.8 1011.7
00 20.02 ЮВ 2 8000 м 5/3 200 м
[Cu med, cong As trans]
+25.8 +24.1 90 +36 +36 очень
душно
1012.3 1011.2 +21.0 +29.8
03 20.02 ЮВ 2 1000 м 4/4 120 м
[Cu med, cong]
+23.6 +22.7 95 +31 +31 очень
душно
1013.6 1012.4
06 20.02 ЮВ 1 1000 м 5/5 60 м
[Cu med, cong]
+23.0 +22.7 98 +32 +32 очень
душно
1014.2 1013.0 +21.0 +29.8
09 20.02 штиль 0 1000 м 6/6 60 м
[Cu med, cong]
+22.8 +22.5 98 +31 +31 очень
душно
1012.7 1011.5
12 20.02 ЮВ 1 1000 м 6/5 60 м
[Cu med, cong Ac trans]
+22.4 +22.1 98 +30 +30 очень
душно
1013.2 1012.0 +21.4 +29.8
15 20.02 ЮВ 1 8000 м дымка {туман} 8/4 60 м
[Cu med, cong As trans]
+22.8 +22.6 99 +31 +33 очень
душно
1015.0 1013.8
18 20.02 ЮЗ 1 8000 м мгла {туман} 9/5 300 м
[Cu med, cong As trans]
+26.4 +24.1 87 +37 +41 очень
душно
1015.2 1014.0 +21.0 +27.8
21 20.02 ЮВ 2 8000 м 8/4 400 м
[Sc As trans]
+28.4 +25.3 83 +41 +45 опасность
перегрева
1012.9 1011.7
00 21.02 ЮВ 1 8000 м 8/3 100 м
[Cu med, cong As trans Ci]
+26.2 +24.8 92 +37 +37 очень
душно
1012.5 1011.4 +21.0 +30.0
03 21.02 ЮВ 3 1000 м 8/5 150 м
[Cu med, cong Ac As]
+24.4 +23.2 93 +33 +33 очень
душно
1013.4 1012.2
06 21.02 ЮВ 3 1000 м 8/5 90 м
[Cu med, cong Ac As]
+23.4 +22.8 96 +33 +33 очень
душно
1014.4 1013.3 +21.0 +30.0
09 21.02 ЮВ 3 1000 м 8/5 90 м
[Cu med, cong Ac As]
+22.8 +22.2 96 +31 +31 очень
душно
1015.7 1014.5
12 21.02 ЮВ 1 1000 м 8/5 90 м
[Cu med, cong Ac As]
+22.2 +21.6 96 +29 +29 очень
душно
1014.7 1013.5 +21.8 +22.0
15 21.02 ЮЗ 1 8000 м дымка {туман} 10/6 90 м
[Sc diur, vesp As op]
+23.4 +22.8 96 +33 +33 очень
душно
1017.3 1016.1
18 21.02 ЮЗ 1 8000 м 9/5 180 м
[Cu med, cong As op]
+25.6 +24.2 92 +35 +39 очень
душно
1017.9 1016.8 +22.0 +26.8
21 21.02 ЮЗ 1 8000 м 8/5 300 м
[Sc diur, vesp As trans]
+28.6 +26.4 88 +44 +48 опасность
перегрева
1015.4 1014.2

 

Местоположение метеостанции Tuxpan (Мексика): широта 20.95 долгота -97.40 высота над уровнем моря 28 м.

В архиве по умолчанию представлена погода в Tuxpan за последнюю неделю. Архивные данные за месяц целиком и за предыдущие месяцы, начиная с января 2011 года, Вы можете получить, выбрав интересующий диапазон дат из раскрывающегося списка и нажав кнопку "Ввод!".

Внимание! Время в таблицах - всемирное. Для получения местного времени необходимо прибавить поправку, которая в Tuxpan равна -6 ч.

Смотрите также архив погоды в соседних городах и на ближайших метеорологических станциях:

Погода в Tulancingo (Мексика) (140 км)
Погода в Tampico (Мексика) (147 км)
Погода в Matlapa (Мексика) (152 км)
Погода в Jalapa (Мексика) (164 км)
Погода в Pachuca (Мексика) (168 км)
Погода в Tamuin (Мексика) (183 км)
Погода в Tlaxcala (Мексика) (202 км)
Погода в Tlaxcala Airport (Мексика) (202 км)
Погода в Puebla (Мексика) (226 км)
Погода в Cordoba-In-Veracruz (Мексика) (233 км)

Пояснения к столбцам:

Ветер - указаны скорость ветра в м/с - средняя за 10 мин, порывы в срок и между сроками (в фигурных скобках) и направление, откуда дует ветер: С - северный, СВ - северо-восточный, В - восточный, ЮВ - юго-восточный, Ю - южный, ЮЗ - юго-западный, З - западный, СЗ - северо-западный.
Видимость - горизонтальная дальность видимости в метрах или километрах. При видимости от 1 до 10 км при отсутствии осадков обычно наблюдается дымка, при ухудшении видимости до 1 км и менее - туман. В сухую погоду видимость может ухудшаться дымом, пылью или мглою.
Явления - указаны атмосферные явления, наблюдавшиеся в срок или в последний час перед сроком; фигурными скобками обозначены явления, наблюдавшиеся между сроками (за 1-3 часа до срока); квадратными скобками обозначены град или гололедные отложения с указанием их диаметра в мм.
Облачность - указаны через наклонную черту общая и нижняя облачность в баллах и высота нижней границы облаков в метрах; квадратными скобками обозначены формы облаков: Ci - перистые, Cs - перисто-слоистые, Cc - перисто-кучевые, Ac - высококучевые, As - высокослоистые, Sc - слоисто-кучевые, Ns - слоисто-дождевые, Cu - кучевые, Cb - кучево-дождевые. Подробнее классификацию облаков см. в Атласе облаков (PDF).
T - Температура воздуха - температура, измеренная на высоте 2 м над землей.
Td - Температура точки росы - температура, при понижении до которой содержащийся в воздухе водяной пар достигнет насыщения.
f - Относительная влажность воздуха - влажноcть воздуха, измеренная на высоте 2 м над землей.
Te - Эффективная температура - температура, которую ощущает одетый по сезону человек в тени. Характеристика душности погоды. При расчете учитывается влияние влажности воздуха и скорости ветра на теплоощущения человека.
Tes - Эффективная температура на солнце - температура, которую ощущает человек, с поправкой на солнечный нагрев. Характеристика знойности погоды. Зависит от высоты солнца над горизонтом, облачности и скорости ветра. Ночью, в пасмурную погоду, а также при ветре 12 м/с и более поправка равна нулю.
P - Атмосферное давление - приведенное к уровню моря атмосферное давление.
Po - Атмосферное давление - измеренное на уровне метеостанции атмосферное давление.
Tmin - Минимальная температура - минимум температуры воздуха на высоте 2 м над землей.
Tmax - Максимальная температура - максимум температуры воздуха на высоте 2 м над землей.
R - Количество осадков - Количество выпавших осадков за период времени, мм. При наведении курсора мыши на число - период времени, за который выпало указанное количество осадков.
R24 - Количество осадков - Количество выпавших осадков за 24 часа, мм.
S - Снежный покров - Высота снежного покрова, см. При наведении курсора мыши на число - состояние снежного покрова и степень покрытия местности в баллах.